Savannah, GA

12:05 AM EST on December 11, 2016 (GMT -0500)
Savannah International

Weather History for KSAV - March, 2014

Change the Weather History Date:

Friday, March 21, 2014

  Actual Average Record
Temperature  
Mean Temperature 58 °F 60 °F  
Max Temperature 72 °F 72 °F 91 °F (1935)
Min Temperature 43 °F 49 °F 26 °F (1956)
Degree Days  
Heating Degree Days 7 6  
Month to date heating degree days 205 161  
Since 1 July heating degree days 1586 1678  
Cooling Degree Days 0 1  
Month to date cooling degree days 3 21  
Year to date cooling degree days 21 31  
Growing Degree Days 8 (Base 50)    
Moisture  
Dew Point 40 °F    
Average Humidity 56    
Maximum Humidity 89    
Minimum Humidity 22    
Precipitation  
Precipitation 0.00 in 0.11 in 1.40 in (1909)
Month to date precipitation 2.28 2.52  
Year to date precipitation 6.39 9.00  
Sea Level Pressure  
Sea Level Pressure 30.11 in    
Wind  
Wind Speed 6 mph (East)    
Max Wind Speed 15 mph    
Max Gust Speed 18 mph    
Visibility 10 miles    
Events      
T = Trace of Precipitation, MM = Missing Value Source: NWS Daily Summary

Daily Weather History Graph

Daily Weather History Graph

Search for Another Location

Airport or City:

Trip Planner

Search our weather history database for the weather conditions in past years. The results will help you decide how hot, cold, wet, or windy it might be!

Date:

Astronomy

Mar. 21, 2014 Rise Set
Actual Time 7:27 AM EDT 7:37 PM EDT
Civil Twilight 7:02 AM EDT 8:01 PM EDT
Nautical Twilight 6:34 AM EDT 8:30 PM EDT
Astronomical Twilight 6:05 AM EDT 8:58 PM EDT
Moon No Moon Rise 10:33 AM EDT (3/21)
Length of Visible Light 12h 58m
Length of Day
12h 09m
Waning Gibbous, 75% of the Moon is Illuminated
Mar 21
Waning Gibbous
Mar 23
Last Quarter
Mar 30
New
Apr 7
First Quarter
Apr 15
Full

Hourly Weather History & Observations

Time (EDT) Temp. Windchill Dew Point Humidity Pressure Visibility Wind Dir Wind Speed Gust Speed Precip Events Conditions
12:53 AM 54.0 °F - 48.9 °F 83% 30.07 in 10.0 mi Calm Calm - N/A   Clear
1:53 AM 51.1 °F - 46.9 °F 86% 30.07 in 10.0 mi Calm Calm - N/A   Clear
2:53 AM 48.9 °F - 44.1 °F 83% 30.08 in 10.0 mi Calm Calm - N/A   Clear
3:53 AM 48.0 °F - 39.9 °F 74% 30.07 in 10.0 mi Calm Calm - N/A   Clear
4:53 AM 46.0 °F - 39.0 °F 76% 30.07 in 10.0 mi Calm Calm - N/A   Clear
5:53 AM 48.0 °F - 36.0 °F 63% 30.09 in 10.0 mi Calm Calm - N/A   Clear
6:53 AM 46.0 °F 43.1 °F 32.0 °F 58% 30.11 in 10.0 mi North 5.8 mph - N/A   Clear
7:53 AM 43.0 °F 39.5 °F 33.1 °F 68% 30.13 in 10.0 mi North 5.8 mph - N/A   Clear
8:53 AM 52.0 °F - 33.1 °F 49% 30.14 in 10.0 mi NE 10.4 mph - N/A   Partly Cloudy
9:53 AM 57.9 °F - 32.0 °F 37% 30.17 in 10.0 mi ENE 10.4 mph - N/A   Clear
10:53 AM 63.0 °F - 32.0 °F 31% 30.17 in 10.0 mi East 11.5 mph - N/A   Scattered Clouds
11:53 AM 66.9 °F - 30.9 °F 26% 30.17 in 10.0 mi ENE 6.9 mph - N/A   Scattered Clouds
12:53 PM 69.1 °F - 32.0 °F 25% 30.17 in 10.0 mi Variable 4.6 mph - N/A   Scattered Clouds
1:53 PM 71.1 °F - 30.0 °F 22% 30.15 in 10.0 mi ENE 6.9 mph - N/A   Mostly Cloudy
2:53 PM 71.1 °F - 35.1 °F 27% 30.13 in 10.0 mi ESE 11.5 mph - N/A   Mostly Cloudy
4:53 PM 69.1 °F - 41.0 °F 36% 30.10 in 10.0 mi ESE 11.5 mph - N/A   Mostly Cloudy
5:53 PM 66.9 °F - 42.1 °F 40% 30.09 in 10.0 mi ESE 11.5 mph - N/A   Mostly Cloudy
6:53 PM 64.0 °F - 48.0 °F 56% 30.10 in 10.0 mi SE 9.2 mph - N/A   Mostly Cloudy
7:53 PM 60.1 °F - 48.9 °F 67% 30.10 in 10.0 mi ESE 5.8 mph - N/A   Mostly Cloudy
8:53 PM 57.0 °F - 48.9 °F 74% 30.10 in 10.0 mi East 5.8 mph - N/A   Mostly Cloudy
9:53 PM 57.0 °F - 50.0 °F 77% 30.11 in 10.0 mi ESE 6.9 mph - N/A   Mostly Cloudy
10:53 PM 55.9 °F - 51.1 °F 84% 30.11 in 10.0 mi ESE 4.6 mph - N/A   Mostly Cloudy
11:53 PM 54.0 °F - 50.0 °F 86% 30.12 in 9.0 mi Calm Calm - N/A   Mostly Cloudy